STARLINK-5450, 54778

Orbit data source: Space-Track

STARLINK-5450, 54778 is a payload satellite owned by SpaceX/Seattle (US) in LEO that was launched on Sat, 17 Dec 2022 UTC via an FALCON 9 launch vehicle from the Air Force Eastern Test Range (AFETR). Payload-class satellites include a variety of spacecraft equipped with specific instruments for various scientific and technological missions. These include communications satellites like Starlink; space stations such as the ISS; scientific satellites like the Hubble; Earth observation satellites from companies like Planet Labs, Umbra, and HawkEye 360; GPS; miniature CubeSats for education and research; and military/defense satellites.

Loading next visibility...
Identifier
54778, 2022-175W
Orbit
LEO
Country
Flag of USUS
Related business
Manufacturer
SpaceX/Seattle
Mission
Operational Commercial Communications
Bus & Motor
STARLINK, Unknown motor
Mass
305 kg wet, ~290 kg dry
Launch date (UTC)
2022-12-17 (4 years ago)
Launch vehicle
FALCON 9
Launch site
Air Force Eastern Test Range (AFETR)
Object type
Payload
Rocket body
Debris
Shape & HBR
Box + 1 Pan, 10.1 m
Radar Cross Section
13.562 m², Large (>1 m²)

Expand to show TLE details & history
Last TLE update: 3 days ago

TLE from 3 days ago
0 STARLINK-5450
1 54778U 22175W   26170.60020677 -.00000256  00000-0  19934-5 0  9997
2 54778  53.1613 291.5796 0001235  90.2216 269.8917 15.08832914195516
Epoch: 2026-06-19T14:24Z
TLE epoch observation values (Epoch: 2026-06-19T14:24:17.864Z)
Latitude
-0.00004°
Longitude
167.67828°
Altitude
540.658 km
Speed
7.593 km/s
True Right ascension
19h 26m 19s
True Declination
0° 00' 00"
Sunlit
Object was in full shadow at epoch
Visualization orbit readout
Latitude
Unknown
Longitude
Unknown
Altitude
Unknown
Speed
Unknown
Apparent Right ascension
Unknown
Apparent Declination
Unknown
Sunlit
N/A
Visualization observer readout
Local Sidereal Time
21:32:36
Azimuth
Unknown
Elevation
Unknown
Doppler factor
Unknown
Orbital elements
Apogee altitude
540.873 km
Perigee altitude
539.165 km
Semi-major axis
6,918.156 km
Eccentricity
0.00012
Inclination
53.1613°
RAAN
291.5796°
Arg. of periapsis
90.2216°
True anomaly
269.87755°
Mean anomaly
269.8917°
Eccentric anomaly
269.88462°
Mean motion
3.77188 °/min
Orbital period
95.44 mins
BSTAR
0.0000019934
Loading maneuver chart data...
Computing Atmospheric mass density...
Loading historical data...
Loading historical data...
Loading historical data...
Loading historical data...
Loading historical data...
Loading historical data...
Loading historical data...

Documentation

Showing up to 5 results
|